Radiation Dose at Monitoring Post of Fukushima Daini Nuclear Power Station
Date,Time,MP-1(microSv/h),MP-2(microSv/h),MP-3(microSv/h),MP-4(microSv/h),MP-5(microSv/h),MP-6(microSv/h),MP-7(microSv/h),Wind Direction,Wind Velocity(m/s),Rain
2024/02/02,00:00,0.149,0.133,0.212,0.202,0.207,0.119,0.077,north-northwest,3.9,No
2024/02/02,00:10,0.149,0.132,0.212,0.200,0.207,0.118,0.077,northwest,5.0,No
2024/02/02,00:20,0.149,0.132,0.211,0.201,0.207,0.119,0.076,north-northwest,4.8,No
2024/02/02,00:30,0.148,0.132,0.213,0.200,0.208,0.119,0.077,north-northwest,4.0,No
2024/02/02,00:40,0.150,0.131,0.213,0.201,0.209,0.118,0.076,northwest,3.7,No
2024/02/02,00:50,0.150,0.132,0.212,0.201,0.209,0.118,0.077,northwest,4.7,No
2024/02/02,01:00,0.149,0.132,0.212,0.200,0.207,0.119,0.077,northwest,5.5,No
2024/02/02,01:10,0.148,0.132,0.211,0.201,0.207,0.119,0.077,northwest,5.1,No
2024/02/02,01:20,0.149,0.133,0.211,0.201,0.207,0.118,0.076,north-northwest,5.1,No
2024/02/02,01:30,0.149,0.132,0.212,0.201,0.207,0.118,0.076,northwest,4.9,No
2024/02/02,01:40,0.149,0.132,0.212,0.200,0.207,0.119,0.077,north-northwest,4.6,No
2024/02/02,01:50,0.149,0.133,0.211,0.200,0.208,0.118,0.077,north-northwest,6.0,No
2024/02/02,02:00,0.149,0.132,0.211,0.201,0.208,0.117,0.077,north-northwest,4.9,No
2024/02/02,02:10,0.148,0.133,0.212,0.201,0.208,0.118,0.077,northwest,5.6,No
2024/02/02,02:20,0.148,0.132,0.212,0.201,0.207,0.118,0.076,northwest,4.4,No
2024/02/02,02:30,0.149,0.132,0.212,0.200,0.206,0.119,0.077,northwest,5.9,No
2024/02/02,02:40,0.148,0.132,0.212,0.201,0.207,0.118,0.077,north-northwest,7.3,No
2024/02/02,02:50,0.148,0.132,0.212,0.200,0.208,0.118,0.077,north-northwest,8.4,No
2024/02/02,03:00,0.148,0.131,0.212,0.200,0.206,0.118,0.076,north-northwest,8.7,No
2024/02/02,03:10,0.149,0.132,0.212,0.200,0.207,0.118,0.077,north-northwest,7.4,No
2024/02/02,03:20,0.149,0.133,0.211,0.199,0.208,0.119,0.076,north-northwest,7.5,No
2024/02/02,03:30,0.149,0.131,0.212,0.201,0.207,0.119,0.077,north-northwest,5.2,No
2024/02/02,03:40,0.149,0.132,0.212,0.202,0.208,0.119,0.077,north-northwest,6.0,No
2024/02/02,03:50,0.150,0.132,0.213,0.201,0.208,0.119,0.077,north-northwest,7.0,No
2024/02/02,04:00,0.150,0.132,0.212,0.201,0.208,0.117,0.077,northwest,7.0,No
2024/02/02,04:10,0.149,0.133,0.211,0.201,0.207,0.119,0.077,north-northwest,6.7,No
2024/02/02,04:20,0.149,0.133,0.212,0.201,0.208,0.118,0.077,northwest,7.0,No
2024/02/02,04:30,0.149,0.132,0.212,0.200,0.208,0.118,0.076,northwest,5.9,No
2024/02/02,04:40,0.148,0.132,0.211,0.200,0.208,0.118,0.076,north-northwest,5.4,No
2024/02/02,04:50,0.149,0.132,0.211,0.201,0.208,0.119,0.077,northwest,5.5,No
2024/02/02,05:00,0.149,0.132,0.212,0.201,0.207,0.118,0.077,northwest,5.0,No
2024/02/02,05:10,0.150,0.133,0.212,0.201,0.207,0.118,0.077,northwest,3.7,No
2024/02/02,05:20,0.148,0.132,0.212,0.201,0.208,0.118,0.076,northwest,3.9,No
2024/02/02,05:30,0.149,0.132,0.212,0.201,0.208,0.119,0.076,northwest,3.2,No
2024/02/02,05:40,0.148,0.132,0.211,0.201,0.208,0.120,0.077,north-northwest,2.9,No
2024/02/02,05:50,0.148,0.133,0.211,0.200,0.208,0.119,0.077,north-northwest,3.2,No
2024/02/02,06:00,0.149,0.132,0.212,0.201,0.208,0.118,0.077,north-northwest,3.6,No
2024/02/02,06:10,0.148,0.132,0.212,0.201,0.208,0.119,0.077,north-northwest,3.6,No
2024/02/02,06:20,0.148,0.133,0.211,0.200,0.207,0.120,0.077,north-northwest,3.1,No
2024/02/02,06:30,0.149,0.132,0.211,0.201,0.207,0.119,0.076,northwest,3.7,No
2024/02/02,06:40,0.149,0.132,0.211,0.201,0.208,0.119,0.076,northwest,3.9,No
2024/02/02,06:50,0.149,0.132,0.211,0.201,0.207,0.118,0.076,northwest,4.0,No
2024/02/02,07:00,0.148,0.132,0.211,0.201,0.207,0.118,0.077,northwest,4.0,No
2024/02/02,07:10,0.149,0.131,0.211,0.201,0.207,0.119,0.076,north-northwest,2.8,No
2024/02/02,07:20,0.148,0.131,0.212,0.201,0.208,0.119,0.077,north-northwest,2.0,No
2024/02/02,07:30,0.149,0.133,0.211,0.201,0.207,0.119,0.077,north,1.1,No
2024/02/02,07:40,0.148,0.132,0.212,0.202,0.209,0.119,0.077,north-northwest,1.4,No
2024/02/02,07:50,0.149,0.132,0.211,0.201,0.207,0.119,0.077,north,2.3,No
2024/02/02,08:00,0.148,0.132,0.210,0.201,0.206,0.118,0.077,north,2.6,No
2024/02/02,08:10,0.148,0.132,0.211,0.201,0.208,0.118,0.077,north,1.2,No
2024/02/02,08:20,0.149,0.133,0.211,0.200,0.207,0.119,0.077,north-northwest,1.1,No
2024/02/02,08:30,0.149,0.132,0.210,0.200,0.207,0.118,0.077,north,1.7,No
2024/02/02,08:40,0.149,0.132,0.210,0.200,0.207,0.118,0.077,north,0.8,No
2024/02/02,08:50,0.149,0.132,0.212,0.201,0.208,0.118,0.077,northwest,1.5,No
2024/02/02,09:00,0.149,0.132,0.211,0.201,0.207,0.118,0.077,north-northwest,2.4,No
2024/02/02,09:10,0.148,0.133,0.211,0.201,0.207,0.119,0.077,northwest,2.1,No
2024/02/02,09:20,0.148,0.132,0.211,0.200,0.208,0.119,0.076,northwest,2.0,No
2024/02/02,09:30,0.149,0.132,0.211,0.200,0.204,0.119,0.077,north-northwest,1.9,No
2024/02/02,09:40,0.148,0.131,0.211,0.200,0.206,0.118,0.076,northwest,2.8,No
2024/02/02,09:50,0.149,0.131,0.211,0.200,0.206,0.118,0.076,west-northwest,3.1,No
2024/02/02,10:00,0.148,0.132,0.211,0.202,0.206,0.119,0.077,west-northwest,3.1,No
2024/02/02,10:10,0.149,0.132,0.211,0.199,0.207,0.118,0.076,west-northwest,3.2,No
2024/02/02,10:20,0.148,0.131,0.212,0.201,0.206,0.119,0.077,northwest,3.1,No
2024/02/02,10:30,0.148,0.132,0.211,0.201,0.208,0.119,0.077,west-northwest,1.8,No
2024/02/02,10:40,0.148,0.132,0.209,0.200,0.206,0.118,0.077,northwest,2.3,No
2024/02/02,10:50,0.148,0.132,0.211,0.200,0.207,0.118,0.077,northwest,1.9,No
2024/02/02,11:00,0.148,0.131,0.211,0.201,0.208,0.119,0.077,northwest,2.1,No
2024/02/02,11:10,0.148,0.132,0.209,0.200,0.206,0.118,0.077,northwest,2.8,No
2024/02/02,11:20,0.148,0.132,0.210,0.199,0.207,0.119,0.076,west-northwest,1.5,No
2024/02/02,11:30,0.148,0.131,0.210,0.200,0.208,0.119,0.076,west-northwest,1.8,No
2024/02/02,11:40,0.149,0.132,0.210,0.200,0.206,0.118,0.077,west-northwest,3.8,No
2024/02/02,11:50,0.148,0.131,0.211,0.201,0.207,0.118,0.077,west-northwest,5.8,No
2024/02/02,12:00,0.148,0.131,0.211,0.201,0.207,0.119,0.077,west-northwest,5.3,No
2024/02/02,12:10,0.147,0.132,0.210,0.201,0.207,0.119,0.077,northwest,5.0,No
2024/02/02,12:20,0.148,0.131,0.212,0.202,0.207,0.119,0.076,northwest,5.0,No
2024/02/02,12:30,0.149,0.133,0.210,0.201,0.206,0.119,0.076,north-northwest,4.6,No
2024/02/02,12:40,0.148,0.132,0.211,0.201,0.208,0.119,0.077,northwest,4.1,No
2024/02/02,12:50,0.149,0.131,0.211,0.201,0.206,0.118,0.077,west-northwest,5.1,No
2024/02/02,13:00,0.148,0.132,0.211,0.200,0.208,0.119,0.076,west-northwest,5.1,No
2024/02/02,13:10,0.148,0.132,0.211,0.200,0.208,0.119,0.077,northwest,5.0,No
2024/02/02,13:20,0.148,0.131,0.212,0.201,0.209,0.119,0.076,northwest,7.3,No
2024/02/02,13:30,0.149,0.132,0.211,0.201,0.210,0.119,0.076,west-northwest,5.4,No
2024/02/02,13:40,0.148,0.133,0.211,0.201,0.207,0.118,0.077,west-northwest,5.5,No
2024/02/02,13:50,0.149,0.132,0.212,0.202,0.208,0.118,0.077,west-northwest,6.6,No
2024/02/02,14:00,0.149,0.132,0.211,0.200,0.209,0.120,0.077,west-northwest,5.7,No
2024/02/02,14:10,0.148,0.132,0.211,0.201,0.207,0.119,0.077,west-northwest,7.4,No
2024/02/02,14:20,0.149,0.132,0.213,0.200,0.208,0.119,0.077,west,6.9,No
2024/02/02,14:30,0.149,0.132,0.212,0.200,0.208,0.119,0.076,west-northwest,7.6,No
2024/02/02,14:40,0.149,0.132,0.212,0.202,0.209,0.118,0.077,west-northwest,7.5,No
2024/02/02,14:50,0.149,0.132,0.213,0.202,0.209,0.117,0.077,west-northwest,6.8,No
2024/02/02,15:00,0.149,0.132,0.211,0.201,0.208,0.119,0.077,west-northwest,5.5,No
2024/02/02,15:10,0.149,0.132,0.212,0.200,0.209,0.119,0.077,west-northwest,6.3,No
2024/02/02,15:20,0.150,0.132,0.211,0.202,0.208,0.119,0.076,west-northwest,6.5,No
2024/02/02,15:30,0.149,0.132,0.213,0.202,0.209,0.118,0.076,west-northwest,6.9,No
2024/02/02,15:40,0.149,0.133,0.212,0.201,0.208,0.118,0.077,west-northwest,5.7,No
2024/02/02,15:50,0.149,0.133,0.212,0.201,0.206,0.119,0.077,west-northwest,3.7,No
2024/02/02,16:00,0.148,0.132,0.212,0.201,0.208,0.118,0.077,northwest,2.1,No
2024/02/02,16:10,0.149,0.133,0.211,0.202,0.208,0.120,0.076,west-northwest,2.0,No
2024/02/02,16:20,0.149,0.133,0.211,0.200,0.207,0.119,0.076,northwest,0.8,No
2024/02/02,16:30,0.149,0.132,0.211,0.200,0.209,0.120,0.077,west-northwest,1.2,No
2024/02/02,16:40,0.149,0.132,0.211,0.201,0.208,0.119,0.076,west-northwest,3.4,No
2024/02/02,16:50,0.149,0.132,0.213,0.202,0.207,0.118,0.076,west,4.3,No
2024/02/02,17:00,0.149,0.132,0.211,0.201,0.208,0.119,0.077,west-northwest,4.7,No
2024/02/02,17:10,0.148,0.132,0.212,0.201,0.208,0.119,0.077,west,4.9,No
2024/02/02,17:20,0.149,0.132,0.211,0.201,0.208,0.118,0.076,west-northwest,5.6,No
2024/02/02,17:30,0.149,0.132,0.212,0.201,0.208,0.118,0.076,west-northwest,4.6,No
2024/02/02,17:40,0.149,0.132,0.212,0.202,0.207,0.119,0.077,west-northwest,5.7,No
2024/02/02,17:50,0.148,0.132,0.211,0.202,0.208,0.118,0.076,west-northwest,5.4,No
2024/02/02,18:00,0.149,0.131,0.212,0.200,0.208,0.119,0.076,west,4.4,No
2024/02/02,18:10,0.148,0.132,0.212,0.201,0.207,0.118,0.076,west-northwest,5.2,No
2024/02/02,18:20,0.148,0.132,0.212,0.201,0.208,0.118,0.076,northwest,5.0,No
2024/02/02,18:30,0.149,0.132,0.212,0.200,0.207,0.120,0.077,northwest,5.2,No
2024/02/02,18:40,0.149,0.132,0.212,0.200,0.208,0.118,0.077,northwest,3.5,No
2024/02/02,18:50,0.148,0.131,0.211,0.201,0.207,0.118,0.077,northwest,1.9,No
2024/02/02,19:00,0.148,0.132,0.213,0.202,0.207,0.119,0.077,north-northwest,2.3,No
2024/02/02,19:10,0.149,0.133,0.212,0.201,0.207,0.119,0.076,north-northwest,3.0,No
2024/02/02,19:20,0.148,0.132,0.212,0.201,0.208,0.118,0.076,north-northwest,3.0,No
2024/02/02,19:30,0.149,0.132,0.212,0.201,0.207,0.119,0.077,northwest,2.0,No
2024/02/02,19:40,0.149,0.132,0.211,0.200,0.207,0.119,0.076,northwest,2.2,No
2024/02/02,19:50,0.149,0.133,0.212,0.201,0.207,0.119,0.076,west-northwest,4.0,No
2024/02/02,20:00,0.148,0.133,0.212,0.202,0.207,0.119,0.077,west-northwest,5.0,No
2024/02/02,20:10,0.150,0.132,0.213,0.201,0.208,0.119,0.077,west-northwest,7.6,No
2024/02/02,20:20,0.149,0.132,0.211,0.200,0.207,0.120,0.077,west-northwest,6.3,No
2024/02/02,20:30,0.148,0.132,0.212,0.201,0.208,0.119,0.076,west-northwest,5.6,No
2024/02/02,20:40,0.148,0.131,0.212,0.202,0.207,0.119,0.076,northwest,3.3,No
2024/02/02,20:50,0.149,0.133,0.212,0.202,0.207,0.119,0.077,north-northwest,3.8,No
2024/02/02,21:00,0.148,0.132,0.211,0.201,0.208,0.118,0.076,north-northwest,2.9,No
2024/02/02,21:10,0.148,0.132,0.211,0.201,0.208,0.119,0.076,north-northwest,2.5,No
2024/02/02,21:20,0.148,0.132,0.212,0.201,0.208,0.119,0.077,north-northwest,2.5,No
2024/02/02,21:30,0.149,0.132,0.211,0.202,0.206,0.118,0.077,north,2.1,No
2024/02/02,21:40,0.149,0.132,0.212,0.201,0.209,0.118,0.076,north,1.4,No
2024/02/02,21:50,0.149,0.133,0.212,0.202,0.208,0.119,0.076,north-northwest,1.4,No
2024/02/02,22:00,0.150,0.133,0.212,0.201,0.208,0.119,0.077,north-northwest,2.2,No
2024/02/02,22:10,0.149,0.132,0.214,0.201,0.208,0.119,0.077,north,1.5,No
2024/02/02,22:20,0.149,0.133,0.211,0.201,0.207,0.118,0.077,north-northeast,1.4,No
2024/02/02,22:30,0.150,0.133,0.212,0.202,0.207,0.119,0.077,north,1.4,No
2024/02/02,22:40,0.149,0.132,0.212,0.200,0.206,0.118,0.077,north-northeast,1.8,No
2024/02/02,22:50,0.149,0.132,0.212,0.201,0.208,0.119,0.077,north,1.5,No
2024/02/02,23:00,0.149,0.132,0.211,0.201,0.208,0.119,0.077,north,1.7,No
2024/02/02,23:10,0.150,0.132,0.212,0.202,0.208,0.119,0.077,north,1.7,No
2024/02/02,23:20,0.149,0.133,0.212,0.202,0.207,0.119,0.076,north,1.6,No
2024/02/02,23:30,0.149,0.133,0.212,0.201,0.207,0.119,0.077,north-northeast,1.1,No
2024/02/02,23:40,0.150,0.133,0.212,0.201,0.209,0.119,0.077,east-northeast,0.6,No
2024/02/02,23:50,0.151,0.133,0.212,0.202,0.207,0.118,0.077,north-northeast,1.4,No
